Lewisburg, WV

6:02 AM EDT on October 20, 2017 (GMT -0400)
Greenbrier Valley

Weather History for KLWB - March, 2013

Change the Weather History Date:

Wednesday, March 20, 2013

  Actual Average Record
Temperature  
Mean Temperature 34 °F 41 °F  
Max Temperature 42 °F 53 °F 79 °F (1968)
Min Temperature 26 °F 28 °F 19 °F (1981)
Degree Days  
Heating Degree Days 31    
Month to date heating degree days  
Since 1 July heating degree days  
Cooling Degree Days 0    
Month to date cooling degree days  
Year to date cooling degree days  
Moisture  
Dew Point 6 °F    
Average Humidity 34    
Maximum Humidity 80    
Minimum Humidity 18    
Precipitation  
Precipitation 0.00 in - 0.19 in (2015)
Snow  
Snow 0.00 in - - ()
Month to date snowfall  
Since 1 July snowfall  
Snow Depth -    
Sea Level Pressure  
Sea Level Pressure 29.92 in    
Wind  
Wind Speed 9 mph (WNW)    
Max Wind Speed 20 mph    
Max Gust Speed 29 mph    
Visibility 10 miles    
Events Snow    
T = Trace of Precipitation, MM = Missing Value Source: NWS Daily Summary

Daily Weather History Graph

Daily Weather History Graph

Search for Another Location

Airport or City:

Trip Planner

Search our weather history database for the weather conditions in past years. The results will help you decide how hot, cold, wet, or windy it might be!

Date:

Astronomy

Mar. 20, 2013 Rise Set
Actual Time 7:24 AM EDT 7:33 PM EDT
Civil Twilight 6:58 AM EDT 7:59 PM EDT
Nautical Twilight 6:27 AM EDT 8:30 PM EDT
Astronomical Twilight 5:56 AM EDT 9:01 PM EDT
Moon 1:12 PM EDT 2:57 AM EDT
Length of Visible Light 13h 01m
Length of Day
12h 08m
First Quarter, 59% of the Moon is Illuminated
Mar 20
First Quarter
Mar 27
Full
Apr 3
Last Quarter
Apr 10
New
Apr 18
First Quarter

Hourly Weather History & Observations

Time (EDT) Temp. Windchill Dew Point Humidity Pressure Visibility Wind Dir Wind Speed Gust Speed Precip Events Conditions
12:15 AM 32.0 °F 25.6 °F -2.2 °F 23% 30.01 in 10.0 mi West 6.9 mph - N/A   Clear
12:35 AM 32.0 °F 28.7 °F -2.2 °F 23% 30.02 in 10.0 mi West 3.5 mph - N/A   Clear
12:55 AM 32.0 °F 23.6 °F -2.2 °F 23% 30.02 in 10.0 mi WNW 10.4 mph - N/A   Clear
1:15 AM 32.0 °F 25.6 °F -0.4 °F 25% 30.02 in 10.0 mi WNW 6.9 mph - N/A   Clear
1:35 AM 32.0 °F 25.6 °F -0.4 °F 25% 30.02 in 10.0 mi WNW 6.9 mph - N/A   Clear
1:55 AM 32.0 °F 26.4 °F -0.4 °F 25% 30.02 in 10.0 mi NW 5.8 mph - N/A   Clear
2:15 AM 30.2 °F 23.4 °F 1.4 °F 29% 30.02 in 10.0 mi WNW 6.9 mph - N/A   Clear
2:35 AM 30.2 °F 20.8 °F 1.4 °F 29% 30.02 in 10.0 mi NW 11.5 mph 18.4 mph N/A   Clear
2:55 AM 30.2 °F 23.4 °F 1.4 °F 29% 30.02 in 10.0 mi WNW 6.9 mph 18.4 mph N/A   Clear
3:15 AM 30.2 °F 23.4 °F 1.4 °F 29% 30.01 in 10.0 mi NW 6.9 mph - N/A   Clear
3:35 AM 30.2 °F 22.6 °F 1.4 °F 29% 30.01 in 10.0 mi NW 8.1 mph - N/A   Clear
3:55 AM 28.4 °F 20.4 °F 3.2 °F 34% 30.00 in 10.0 mi NW 8.1 mph - N/A   Clear
4:15 AM 28.4 °F 23.3 °F 3.2 °F 34% 30.00 in 10.0 mi WNW 4.6 mph - N/A   Clear
4:35 AM 28.4 °F 22.2 °F 1.4 °F 31% 30.00 in 10.0 mi WNW 5.8 mph - N/A   Clear
4:55 AM 28.4 °F 23.3 °F 3.2 °F 34% 29.99 in 10.0 mi WNW 4.6 mph - N/A   Clear
5:15 AM 28.4 °F 24.6 °F 3.2 °F 34% 30.00 in 10.0 mi NW 3.5 mph - N/A   Clear
5:35 AM 28.4 °F 22.2 °F 3.2 °F 34% 29.99 in 10.0 mi WNW 5.8 mph - N/A   Clear
5:55 AM 28.4 °F 23.3 °F 3.2 °F 34% 29.99 in 10.0 mi WNW 4.6 mph - N/A   Clear
6:15 AM 28.4 °F 22.2 °F 3.2 °F 34% 30.00 in 10.0 mi WNW 5.8 mph - N/A   Clear
6:35 AM 28.4 °F 21.2 °F 3.2 °F 34% 30.00 in 10.0 mi WNW 6.9 mph - N/A   Clear
6:55 AM 28.4 °F 22.2 °F 5.0 °F 37% 30.00 in 10.0 mi West 5.8 mph - N/A   Clear
7:15 AM 26.6 °F 18.2 °F 5.0 °F 40% 30.00 in 10.0 mi WNW 8.1 mph - N/A   Clear
7:35 AM 26.6 °F 22.6 °F 5.0 °F 40% 30.01 in 10.0 mi WNW 3.5 mph - N/A   Clear
7:55 AM 26.6 °F 20.0 °F 5.0 °F 40% 30.00 in 10.0 mi West 5.8 mph - N/A   Clear
8:15 AM 28.4 °F 21.2 °F 5.0 °F 37% 30.01 in 10.0 mi NW 6.9 mph - N/A   Clear
8:35 AM 28.4 °F 22.2 °F 5.0 °F 37% 30.02 in 10.0 mi WNW 5.8 mph - N/A   Clear
8:55 AM 28.4 °F 20.4 °F 6.8 °F 40% 30.02 in 10.0 mi WNW 8.1 mph - N/A   Clear
9:15 AM 28.4 °F 20.4 °F 6.8 °F 40% 30.02 in 10.0 mi WNW 8.1 mph - N/A   Clear
9:35 AM 30.2 °F 22.6 °F 6.8 °F 37% 30.02 in 10.0 mi WNW 8.1 mph - N/A   Clear
9:55 AM 30.2 °F 21.3 °F 5.0 °F 34% 30.02 in 10.0 mi NNW 10.4 mph 17.3 mph N/A   Clear
10:15 AM 32.0 °F 24.8 °F 6.8 °F 35% 30.02 in 10.0 mi WNW 8.1 mph - N/A   Clear
10:35 AM 32.0 °F 23.6 °F 5.0 °F 32% 30.01 in 10.0 mi West 10.4 mph - N/A   Clear
10:55 AM 32.0 °F 24.2 °F 5.0 °F 32% 30.00 in 10.0 mi WNW 9.2 mph - N/A   Clear
11:15 AM 33.8 °F 27.0 °F 5.0 °F 30% 29.99 in 10.0 mi West 8.1 mph - N/A   Clear
11:55 AM 35.6 °F 27.1 °F 5.0 °F 28% 29.98 in 10.0 mi West 12.7 mph 17.3 mph N/A   Clear
12:15 PM 35.6 °F 27.5 °F 5.0 °F 28% 29.97 in 10.0 mi West 11.5 mph 20.7 mph N/A   Scattered Clouds
12:35 PM 35.6 °F 25.5 °F 5.0 °F 28% 29.96 in 10.0 mi WSW 17.3 mph 23.0 mph N/A   Scattered Clouds
12:55 PM 37.4 °F 29.8 °F 3.2 °F 24% 29.94 in 10.0 mi West 11.5 mph 20.7 mph N/A   Clear
1:15 PM 37.4 °F 29.3 °F 3.2 °F 24% 29.93 in 10.0 mi WSW 12.7 mph 21.9 mph N/A   Clear
1:35 PM 39.2 °F 30.5 °F 3.2 °F 22% 29.92 in 10.0 mi WSW 16.1 mph 25.3 mph N/A   Scattered Clouds
1:55 PM 41.0 °F 33.5 °F 1.4 °F 19% 29.91 in 10.0 mi WSW 13.8 mph 27.6 mph N/A   Scattered Clouds
2:15 PM 41.0 °F 32.5 °F 3.2 °F 21% 29.89 in 10.0 mi WSW 17.3 mph 24.2 mph N/A   Scattered Clouds
2:35 PM 41.0 °F 31.9 °F 1.4 °F 19% 29.88 in 10.0 mi West 19.6 mph 25.3 mph N/A   Scattered Clouds
2:55 PM 41.0 °F 32.5 °F -0.4 °F 18% 29.86 in 10.0 mi West 17.3 mph 27.6 mph N/A   Scattered Clouds
3:15 PM 41.0 °F 32.2 °F 1.4 °F 19% 29.85 in 10.0 mi WSW 18.4 mph 24.2 mph N/A   Mostly Cloudy
3:35 PM 41.0 °F 32.8 °F 1.4 °F 19% 29.84 in 10.0 mi West 16.1 mph 25.3 mph N/A   Overcast
3:55 PM 42.8 °F 34.3 °F 1.4 °F 18% 29.83 in 10.0 mi West 19.6 mph 26.5 mph N/A   Overcast
4:15 PM 42.8 °F 36.2 °F 1.4 °F 18% 29.83 in 10.0 mi West 12.7 mph 21.9 mph N/A   Scattered Clouds
4:35 PM 41.0 °F 32.5 °F 1.4 °F 19% 29.82 in 10.0 mi West 17.3 mph 24.2 mph N/A   Clear
4:55 PM 41.0 °F 33.9 °F 1.4 °F 19% 29.80 in 10.0 mi West 12.7 mph 20.7 mph N/A   Clear
5:15 PM 41.0 °F 33.1 °F 3.2 °F 21% 29.80 in 10.0 mi WSW 15.0 mph 25.3 mph N/A   Scattered Clouds
5:35 PM 41.0 °F 33.1 °F 3.2 °F 21% 29.79 in 10.0 mi WSW 15.0 mph - N/A   Scattered Clouds
5:55 PM 41.0 °F 34.3 °F 3.2 °F 21% 29.78 in 10.0 mi West 11.5 mph 24.2 mph N/A   Scattered Clouds
6:15 PM 41.0 °F 33.9 °F 3.2 °F 21% 29.78 in 10.0 mi WNW 12.7 mph 20.7 mph N/A   Scattered Clouds
6:35 PM 39.2 °F 31.6 °F 3.2 °F 22% 29.78 in 10.0 mi West 12.7 mph 28.8 mph N/A   Scattered Clouds
6:55 PM 37.4 °F 27.8 °F 3.2 °F 24% 29.78 in 10.0 mi West 17.3 mph 23.0 mph N/A   Scattered Clouds
7:15 PM 37.4 °F 30.3 °F 5.0 °F 26% 29.78 in 10.0 mi West 10.4 mph - N/A   Mostly Cloudy
7:35 PM 35.6 °F 28.0 °F 5.0 °F 28% 29.78 in 10.0 mi West 10.4 mph - N/A   Scattered Clouds
7:55 PM 35.6 °F 29.9 °F 6.8 °F 30% 29.78 in 10.0 mi West 6.9 mph 18.4 mph N/A   Scattered Clouds
8:15 PM 35.6 °F 29.9 °F 8.6 °F 33% 29.77 in 10.0 mi West 6.9 mph - N/A   Mostly Cloudy
8:35 PM 35.6 °F 31.7 °F 8.6 °F 33% 29.77 in 10.0 mi West 4.6 mph - N/A   Mostly Cloudy
8:55 PM 35.6 °F 29.9 °F 8.6 °F 33% 29.79 in 10.0 mi WNW 6.9 mph - N/A   Mostly Cloudy
9:15 PM 32.0 °F 23.6 °F 17.6 °F 55% 29.79 in 10.0 mi NW 10.4 mph 17.3 mph N/A   Mostly Cloudy
9:35 PM 32.0 °F 24.2 °F 21.2 °F 64% 29.80 in 10.0 mi NNW 9.2 mph - N/A   Mostly Cloudy
9:55 PM 32.0 °F 26.4 °F 21.2 °F 64% 29.81 in 10.0 mi WNW 5.8 mph - N/A   Overcast
10:15 PM 30.2 °F 20.8 °F 23.0 °F 75% 29.82 in 2.0 mi WNW 11.5 mph 18.4 mph N/A Snow Light Snow
10:35 PM 28.4 °F 21.2 °F 23.0 °F 80% 29.82 in 2.5 mi WNW 6.9 mph - N/A Snow Light Snow
10:55 PM 28.4 °F 23.3 °F 23.0 °F 80% 29.82 in 10.0 mi West 4.6 mph - N/A Snow Light Snow
11:15 PM 28.4 °F 20.4 °F 21.2 °F 74% 29.82 in 7.0 mi WNW 8.1 mph 16.1 mph N/A   Overcast
11:35 PM 28.4 °F 24.6 °F 21.2 °F 74% 29.82 in 7.0 mi WNW 3.5 mph - N/A   Overcast
11:55 PM 28.4 °F 22.2 °F 21.2 °F 74% 29.81 in 10.0 mi SW 5.8 mph - N/A   Overcast